Home   Weather   New York   Past weeks
Flag for USA

Past Weather in New York, New York, USA — July 2019

Now
76 °F

Passing clouds.


Feels Like: 76 °F
Forecast: 86 / 74 °F
Wind: No wind

Location: New York City - Central Park

Current Time: Aug 17, 2019 at 10:54:53 pm

Latest Report: Aug 17, 2019 at 9:51 pm


Visibility: 10 mi

Pressure: 29.98 "Hg

Humidity: 88%

Dew Point: 72 °F

Location of New YorkLocation

July 2019 Weather in New York — Graph

°F

High & Low Weather Summary for July 2019

 TemperatureHumidityPressure
High94 °F (Jul 20, 12:51 pm)97% (Jul 11, 3:36 pm)30.28 "Hg (Jul 11, 3:36 pm)
Low65 °F (Jul 1, 5:51 am)32% (Jul 14, 5:51 pm)29.70 "Hg (Jul 22, 4:51 pm)
Average79 °F67%29.95 "Hg
* Reported Jul 1 12:51 am — Jul 31 11:51 pm, New York. Weather by CustomWeather, © 2019

Note: Actual official high and low records may vary slightly from our data, if they occured in-between our weather recording intervals... More about our weather records

Advertising

New York Weather History for July 1, 2019

Scroll right to see more
 ConditionsComfort  
Time TempWeatherWind HumidityBarometerVisibility
12:51 am
Mon, Jul 1
69 °FClear.No wind59%29.88 "Hg10 mi
1:51 am68 °FClear.3 mph63%29.89 "Hg10 mi
2:51 am67 °FClear.6 mph66%29.90 "Hg10 mi
3:51 am67 °FClear.N/A63%29.91 "Hg10 mi
4:51 am66 °FClear.3 mph65%29.91 "Hg10 mi
5:51 am65 °FSunny.6 mph70%29.92 "Hg10 mi
6:51 am66 °FSunny.3 mph70%29.92 "Hg10 mi
7:51 am68 °FSunny.3 mph65%29.93 "Hg10 mi
8:51 am71 °FSunny.No wind63%29.93 "Hg10 mi
9:51 am73 °FSunny.10 mph57%29.94 "Hg10 mi
10:51 am75 °FSunny.5 mph55%29.94 "Hg10 mi
11:51 am81 °FSunny.5 mph44%29.93 "Hg10 mi
12:51 pm80 °FSunny.8 mph44%29.92 "Hg10 mi
1:51 pm83 °FSunny.3 mph40%29.91 "Hg10 mi
2:51 pm82 °FSunny.5 mph41%29.89 "Hg10 mi
3:51 pm83 °FScattered clouds.3 mph38%29.90 "Hg10 mi
4:51 pm83 °FSunny.3 mph37%29.88 "Hg10 mi
5:51 pm82 °FSunny.7 mph38%29.87 "Hg10 mi
6:51 pm81 °FSunny.6 mph44%29.87 "Hg10 mi
7:51 pm81 °FSunny.7 mph39%29.87 "Hg10 mi
8:51 pm80 °FClear.3 mph44%29.87 "Hg9 mi
9:51 pm80 °FClear.3 mph42%29.88 "Hg10 mi
10:51 pm79 °FClear.5 mph44%29.88 "Hg10 mi
11:51 pm76 °FClear.3 mph54%29.88 "Hg10 mi
Weather by CustomWeather, © 2019

See weather overview